Regional Weather Roundup
Issued by NWS

Home | Current Version | Previous Version | Text Only | Print | Product List | Glossary On
Versions: 1 2 3 4 5 6 7 8 9 10 11 12 13 14 15 16 17 18 19 20 21 22 23 24 25 26 27 28 29 30 31 32 33 34 35 36 37 38 39 40 41 42 43 44 45 46 47 48 49 50
000
ASUS45 KBOI 210610
RWRID
WEATHER ROUNDUP FOR IDAHO
NATIONAL WEATHER SERVICE BOISE ID
1100 PM MST SAT DEC 20 2014

NOTE: "FAIR" INDICATES FEW OR NO CLOUDS BELOW 12000 FEET
WITH NO SIGNIFICANT WEATHER AND/OR OBSTRUCTIONS TO VISIBILITY

IDZ012-014-210700-
SOUTHWEST IDAHO


CITY           SKY/WX    TMP DP  RH WIND       PRES   REMARKS
BOISE          LGT RAIN  41  37  86 SE14      29.88F
CALDWELL       CLOUDY    41  34  75 NE13      29.89F
MOUNTAIN HOME  LGT RAIN  40  38  95 E14       29.91F WCI  32
$$

IDZ016-017-210700-
SOUTHCENTRAL IDAHO


CITY           SKY/WX    TMP DP  RH WIND       PRES   REMARKS
BURLEY         LGT RAIN  39  35  86 SW12      29.96F WCI  32
JEROME         LGT RAIN  39  37  92 S8        29.95F WCI  33
TWIN FALLS     LGT RAIN  42  37  82 S16       29.94F
$$

IDZ019>023-210700-
SOUTHEAST IDAHO


CITY           SKY/WX    TMP DP  RH WIND       PRES   REMARKS
IDAHO FALLS    FLURRIES  35  33  92 S18       29.93S WCI  24
POCATELLO      LGT RAIN  37  35  92 S13       29.96F WCI  29
REXBURG        MIX PCPN  34  33  96 SW16G22   29.91S WCI  24
$$

IDZ006-010-011-018-031-032-210700-
CENTRAL IDAHO MOUNTAINS


CITY           SKY/WX    TMP DP  RH WIND       PRES   REMARKS
MCCALL         LGT SNOW  33  31  92 SE8       29.79F FOG     WCI  26
HAILEY         LGT SNOW  32  32 100 SE5       29.93F WCI  27
STANLEY          N/A     33  29  85 SE12G20   29.83F WCI  24
SALMON         CLOUDY    37  30  75 S12       29.77F WCI  30
CHALLIS        FLURRIES  32  27  81 CALM      29.80F
$$

IDZ002-004-006-007-026-210700-
NORTHERN IDAHO


CITY           SKY/WX    TMP DP  RH WIND       PRES   REMARKS
LEWISTON       LGT RAIN  47  40  76 S16G24    29.62F
LOWELL           N/A     39  38  96 CALM      29.74F
COEUR D`ALENE  CLOUDY    39  36  87 S5        29.53F
MULLAN PASS    SNOW      30  27  88 S8        29.54F VSB 1/4 WCI  22
$$


USA.gov is the U.S. government's official web portal to all federal, state and local government web resources and services.